World > North America > United States > Illinois

Hourly Shipman, IL Regional Weather

Feedback E-mail the Weather

Quick WX

Shipman, IL Weather Maps

°F °C°F °C
Shipman Weather Map
UTC Time: 7/5/2022, 09:20
Your Time:

Shipman, IL Regional Weather

Expires:202207051000;;715315
ASUS43 KLOT 050908
RWRIL 

ILLINOIS REGIONAL WEATHER ROUNDUP
NATIONAL WEATHER SERVICE CHICAGO/ROMEOVILLE IL
400 AM CDT TUE JUL 05 2022

NOTE: "FAIR" INDICATES FEW OR NO CLOUDS BELOW 12,000 FEET WITH NO
SIGNIFICANT WEATHER AND/OR OBSTRUCTIONS TO VISIBILITY.

* THESE STATIONS ARE NOT UNDER NWS QUALITY CONTROL. THEY ALSO MAY NOT
  REPORT WEATHER SUCH AS PRECIPITATION OR FOG.


ILZ028>032-037-038-041>044-048-051>054-059>061-051000-
CENTRAL ILLINOIS
  
CITY           SKY/WX    TMP DP  RH WIND       PRES   REMARKS
PONTIAC        MOCLDY    79  74  85 SW9       29.92S HX  83           
BLOOMINGTON    PTCLDY    77  73  87 SW9       29.95S                  
DECATUR        CLEAR     80  75  84 SW12      29.96S HX  85           
PEORIA         CLEAR     80  74  81 SW8       29.92S HX  85           
LACON*         PTCLDY    81  75  83 SW6       29.90R HX  86           
LINCOLN*       CLEAR     81  75  81 SW5       29.94S HX  86           
SPRINGFIELD    CLEAR     80  72  76 SW7       29.94S HX  84           
TAYLORVILLE    CLEAR     77  72  84 SW7       29.96S                  
$$


SKY/WX - Weather  TMP - Temperature  DP - Dew Point  RH - Humidity
WIND - Wind Direction/Speed PRES - Barometric Pressure VSB - Visibility
WCI - Wind Chill Index E13G22 Wind - East Wind 13 mph/Gusts of 22 mph

Trending Headlines

Shipman Radar Loop



Shipman Quick Facts


National Two Day Weather Forecast


E-mail the Shipman Weather Forecast

Voice your opinion or tell us about page issues...